Beckley, WV

8:19 AM EDT on April 29, 2017 (GMT -0400)
Raleigh County Memorial

Weather History for KBKW - February, 2013

Change the Weather History Date:

Tuesday, February 26, 2013

  Actual Average Record
Temperature  
Mean Temperature 36 °F 37 °F  
Max Temperature 41 °F 46 °F 75 °F (1917)
Min Temperature 31 °F 28 °F -4 °F (1970)
Degree Days  
Heating Degree Days 29 28  
Month to date heating degree days 833 801  
Since 1 July heating degree days 3749 3945  
Cooling Degree Days 0 0  
Month to date cooling degree days 0 0  
Year to date cooling degree days 0 0  
Moisture  
Dew Point 30 °F    
Average Humidity 73    
Maximum Humidity 92    
Minimum Humidity 54    
Precipitation  
Precipitation 0.12 in 0.10 in 1.40 in (1894)
Month to date precipitation 1.18 2.55  
Year to date precipitation 5.95 5.36  
Snow  
Snow 0.00 in - - ()
Month to date snowfall 9.4  
Since 1 September snowfall 51.8  
Snow Depth 0.00 in    
Sea Level Pressure  
Sea Level Pressure 29.72 in    
Wind  
Wind Speed 19 mph (SE)    
Max Wind Speed 38 mph    
Max Gust Speed 53 mph    
Visibility 9 miles    
Events Rain    
T = Trace of Precipitation, MM = Missing Value Source: NWS Daily Summary

Daily Weather History Graph

Daily Weather History Graph

Search for Another Location

Airport or City:

Trip Planner

Search our weather history database for the weather conditions in past years. The results will help you decide how hot, cold, wet, or windy it might be!

Date:

Astronomy

Feb. 26, 2013 Rise Set
Actual Time 6:59 AM EST 6:15 PM EST
Civil Twilight 6:33 AM EST 6:41 PM EST
Nautical Twilight 6:02 AM EST 7:12 PM EST
Astronomical Twilight 5:32 AM EST 7:42 PM EST
Moon 7:28 PM EST (2/26) 7:03 AM EST (2/26)
Length of Visible Light 12h 08m
Length of Day
11h 15m
Full, 99% of the Moon is Illuminated
Feb 26
Full
Mar 4
Last Quarter
Mar 11
New
Mar 19
First Quarter
Mar 27
Full

Hourly Weather History & Observations

Time (EST) Temp. Windchill Dew Point Humidity Pressure Visibility Wind Dir Wind Speed Gust Speed Precip Events Conditions
12:51 AM 32.0 °F 21.6 °F 19.0 °F 59% 30.04 in 10.0 mi ESE 15.0 mph 25.3 mph N/A   Clear
1:51 AM 32.0 °F 21.2 °F 18.0 °F 56% 30.00 in 10.0 mi SE 16.1 mph 25.3 mph N/A   Scattered Clouds
2:51 AM 32.0 °F 23.0 °F 18.0 °F 56% 29.98 in 10.0 mi SE 11.5 mph 24.2 mph N/A   Mostly Cloudy
3:51 AM 32.0 °F 19.8 °F 18.0 °F 56% 29.93 in 10.0 mi SE 20.7 mph 29.9 mph N/A   Mostly Cloudy
4:51 AM 32.0 °F 20.5 °F 18.0 °F 56% 29.91 in 10.0 mi ESE 18.4 mph 31.1 mph N/A   Overcast
5:51 AM 32.0 °F 18.9 °F 19.0 °F 59% 29.91 in 10.0 mi SE 24.2 mph 34.5 mph N/A   Overcast
6:51 AM 32.0 °F 19.2 °F 18.0 °F 56% 29.89 in 10.0 mi SE 23.0 mph 34.5 mph N/A   Overcast
7:51 AM 32.0 °F 18.4 °F 19.9 °F 61% 29.87 in 10.0 mi ESE 26.5 mph 33.4 mph 0.00 in   Mostly Cloudy
8:49 AM 32.0 °F 18.4 °F 24.8 °F 75% 29.80 in 8.0 mi ESE 26.5 mph 41.4 mph 0.00 in Rain Light Freezing Rain
8:51 AM 30.9 °F 17.2 °F 25.0 °F 79% 29.86 in 8.0 mi ESE 25.3 mph 41.4 mph 0.00 in Rain Light Freezing Rain
9:51 AM 32.0 °F 18.1 °F 28.0 °F 85% 29.83 in 5.0 mi ESE 27.6 mph 40.3 mph 0.03 in Rain Light Freezing Rain
10:51 AM 33.1 °F 20.3 °F 28.9 °F 85% 29.78 in 9.0 mi ESE 24.2 mph 36.8 mph 0.02 in Rain Light Freezing Rain
11:12 AM 33.8 °F 22.2 °F 30.2 °F 87% 29.70 in 10.0 mi ESE 20.7 mph 40.3 mph 0.00 in Rain Light Rain
11:51 AM 36.0 °F 23.5 °F 30.9 °F 82% 29.73 in 10.0 mi ESE 27.6 mph 42.6 mph 0.00 in Rain Light Rain
12:24 PM 37.4 °F 25.6 °F 33.8 °F 87% 29.64 in 4.0 mi ESE 26.5 mph 42.6 mph 0.00 in Rain Light Rain
12:51 PM 39.0 °F 27.6 °F 35.1 °F 86% 29.67 in 6.0 mi ESE 27.6 mph 41.4 mph 0.02 in Rain Light Rain
12:58 PM 39.2 °F 26.8 °F 35.6 °F 87% 29.60 in 6.0 mi ESE 33.4 mph 46.0 mph 0.00 in Rain Light Rain
1:51 PM 41.0 °F 29.5 °F 36.0 °F 82% 29.60 in 6.0 mi ESE 32.2 mph 52.9 mph 0.00 in   Haze
2:51 PM 39.9 °F 29.0 °F 36.0 °F 86% 29.59 in 9.0 mi SE 26.5 mph 44.9 mph 0.00 in Rain Light Rain
2:58 PM 39.2 °F 28.0 °F 35.6 °F 87% 29.52 in 6.0 mi ESE 26.5 mph 41.4 mph 0.00 in Rain Rain
3:15 PM 39.2 °F 28.5 °F 35.6 °F 87% 29.53 in 10.0 mi SE 24.2 mph 40.3 mph 0.02 in   Overcast
3:42 PM 39.2 °F 29.3 °F 35.6 °F 87% 29.54 in 9.0 mi SE 20.7 mph 32.2 mph 0.02 in Rain Light Rain
3:51 PM 39.9 °F 31.1 °F 36.0 °F 86% 29.61 in 5.0 mi SE 17.3 mph 34.5 mph 0.02 in Rain Light Rain
4:35 PM 39.2 °F 30.5 °F 35.6 °F 87% 29.52 in 10.0 mi SE 16.1 mph 28.8 mph 0.03 in   Overcast
4:51 PM 39.9 °F 32.5 °F 36.0 °F 86% 29.58 in 10.0 mi SE 12.7 mph 25.3 mph 0.03 in   Overcast
5:51 PM 39.0 °F 29.9 °F 36.0 °F 89% 29.57 in 10.0 mi SE 17.3 mph 25.3 mph N/A   Overcast
6:51 PM 39.0 °F 30.6 °F 36.0 °F 89% 29.59 in 10.0 mi ESE 15.0 mph 24.2 mph N/A   Overcast
7:51 PM 39.9 °F 32.5 °F 37.0 °F 89% 29.61 in 10.0 mi SE 12.7 mph 20.7 mph N/A   Overcast
8:51 PM 39.9 °F 32.5 °F 37.0 °F 89% 29.60 in 10.0 mi SE 12.7 mph - N/A   Overcast
9:51 PM 39.9 °F 34.5 °F 37.9 °F 93% 29.64 in 6.0 mi South 8.1 mph - 0.00 in Rain Light Rain
10:14 PM 39.2 °F 32.5 °F 37.4 °F 93% 29.58 in 10.0 mi SSE 10.4 mph - 0.00 in Rain Light Rain
10:51 PM 39.9 °F 35.1 °F 37.0 °F 89% 29.62 in 10.0 mi SSE 6.9 mph - 0.00 in   Overcast
11:51 PM 41.0 °F 37.1 °F 37.0 °F 86% 29.61 in 10.0 mi SSW 5.8 mph - N/A   Overcast